Date String (YYYY-MM-DD hh:mm:ss) UTC,Instrument flags,absolute air pressure of the measurement (hPa),sample flow rate (lpm),inlet stack bypass flow (lpm),air temperature of the measurement (°C),ambient temperature measured by the external sensor (°C),aerosol sample conditioner tube jacket temperature (°C),OPC LED temperature (°C),internal box temperature (°C),relative humidity of the measurement (%),span deviation,mass concentration of particles derived from Lorenz-Mie calculation of OPC scattering (μg/m³),mass concentration of particles derived from Lorenz-Mie calculation of OPC scattering (μg/m³),mass concentration of particles derived from Lorenz-Mie calculation of OPC scattering (μg/m³)
DateTimeUTC,F1_M11,P_M11,Q1_M11,Q2_M11,T1_M11,T2_M11,T3_M11,T4_M11,T5_M11,U1_M11,ZSPAN_M11,X0_M11,X2_M11,X1_M11
2023-08-29 00:00:00,SystemResetWarning,0837.6,4.99,000.00,030.3,026.3,000.0,037.5,030.2,31.0,0000.0,0006.94,0003.48,0003.30
2023-08-29 00:01:00,SystemResetWarning,0837.6,5.00,000.00,030.3,026.6,000.0,037.6,030.3,31.2,0000.0,0006.15,0003.47,0003.31
2023-08-29 00:02:00,SystemResetWarning,0837.6,5.00,000.00,030.3,026.8,000.0,037.7,030.3,31.9,0000.0,0005.52,0003.48,0003.31
2023-08-29 00:03:00,SystemResetWarning,0837.6,5.01,000.00,030.4,026.8,000.0,037.8,030.4,32.4,0000.0,0005.47,0003.47,0003.31
2023-08-29 00:04:00,SystemResetWarning,0837.6,4.98,000.00,030.4,025.5,000.0,037.7,030.1,32.2,0000.0,0005.61,0003.47,0003.32
2023-08-29 00:05:00,SystemResetWarning,0837.6,5.02,000.00,030.3,024.2,000.0,037.7,029.9,32.1,0000.0,0005.55,0003.46,0003.33
2023-08-29 00:06:00,SystemResetWarning,0837.6,5.01,000.00,030.2,024.0,000.0,037.6,029.8,32.0,0000.0,0005.64,0003.46,0003.32
2023-08-29 00:07:00,SystemResetWarning,0837.6,4.99,000.00,030.0,024.3,000.0,037.7,029.7,32.0,0000.0,0005.25,0003.47,0003.33
2023-08-29 00:08:00,SystemResetWarning,0837.6,5.00,000.00,029.9,024.8,000.0,037.7,029.8,32.1,0000.0,0005.35,0003.49,0003.36
2023-08-29 00:09:00,SystemResetWarning,0837.6,5.01,000.00,029.9,025.3,000.0,037.8,029.9,32.1,0000.0,0005.30,0003.49,0003.38
2023-08-29 00:10:00,SystemResetWarning,0837.6,4.99,000.00,029.8,025.7,000.0,037.8,030.0,32.1,0000.0,0005.32,0003.49,0003.39
2023-08-29 00:11:00,SystemResetWarning,0837.6,4.99,000.00,029.8,026.1,000.0,037.8,030.1,32.0,0000.0,0005.38,0003.50,0003.39
2023-08-29 00:12:00,SystemResetWarning,0837.6,5.01,000.00,029.8,026.4,000.0,037.8,030.1,32.7,0000.0,0005.52,0003.51,0003.38
2023-08-29 00:13:00,SystemResetWarning,0837.6,5.01,000.00,029.8,026.7,000.0,037.9,030.2,33.0,0000.0,0005.53,0003.50,0003.38
2023-08-29 00:14:00,SystemResetWarning,0837.4,5.00,000.00,029.8,026.9,000.0,037.9,030.3,32.9,0000.0,0005.62,0003.52,0003.38
2023-08-29 00:15:00,SystemResetWarning,0837.3,4.99,000.00,029.8,026.6,000.0,037.8,030.3,32.4,0000.0,0005.68,0003.55,0003.38
2023-08-29 00:16:00,SystemResetWarning,0837.2,5.00,000.00,029.8,025.3,000.0,037.7,030.0,33.2,0000.0,0005.67,0003.56,0003.38
2023-08-29 00:17:00,SystemResetWarning,0837.2,5.02,000.00,029.7,024.8,000.0,037.6,029.8,33.3,0000.0,0005.66,0003.57,0003.39
2023-08-29 00:18:00,SystemResetWarning,0837.0,4.99,000.00,029.6,024.9,000.0,037.6,029.7,33.0,0000.0,0005.34,0003.57,0003.38
2023-08-29 00:19:00,SystemResetWarning,0836.7,4.99,000.00,029.5,025.2,000.0,037.6,029.8,29.1,0000.0,0005.02,0003.56,0003.37
2023-08-29 00:20:00,SystemResetWarning,0836.5,5.01,000.00,029.4,025.6,000.0,037.6,029.9,30.2,0000.0,0005.09,0003.56,0003.35
2023-08-29 00:21:00,SystemResetWarning,0836.4,5.02,000.00,029.4,026.0,000.0,037.7,030.0,32.1,0000.0,0005.09,0003.57,0003.34
2023-08-29 00:22:00,SystemResetWarning,0836.5,5.00,000.00,029.4,026.3,000.0,037.7,030.1,30.2,0000.0,0005.03,0003.56,0003.34
2023-08-29 00:23:00,SystemResetWarning,0836.6,4.99,000.00,029.4,026.6,000.0,037.7,030.2,30.8,0000.0,0005.15,0003.58,0003.34
2023-08-29 00:24:00,SystemResetWarning,0836.7,5.00,000.00,029.4,026.9,000.0,037.7,030.3,30.9,0000.0,0005.20,0003.60,0003.35
2023-08-29 00:25:00,SystemResetWarning,0836.8,5.01,000.00,029.4,027.1,000.0,037.7,030.3,32.1,0000.0,0005.19,0003.59,0003.35
2023-08-29 00:26:00,SystemResetWarning,0837.0,5.00,000.00,029.4,026.9,000.0,037.7,030.3,33.2,0000.0,0005.07,0003.57,0003.33
2023-08-29 00:27:00,SystemResetWarning,0837.1,4.98,000.00,029.4,025.4,000.0,037.5,030.1,33.5,0000.0,0005.01,0003.56,0003.32
2023-08-29 00:28:00,SystemResetWarning,0837.2,5.01,000.00,029.3,024.1,000.0,037.4,029.8,34.4,0000.0,0005.01,0003.56,0003.31
2023-08-29 00:29:00,SystemResetWarning,0837.2,5.01,000.00,029.2,023.9,000.0,037.3,029.6,34.1,0000.0,0005.08,0003.57,0003.30
2023-08-29 00:30:00,SystemResetWarning,0837.2,4.98,000.00,029.0,024.2,000.0,037.3,029.4,35.2,0000.0,0005.02,0003.55,0003.28
2023-08-29 00:31:00,SystemResetWarning,0837.2,5.02,000.00,029.1,024.6,000.0,037.3,029.7,35.2,0000.0,0004.92,0003.51,0003.26
2023-08-29 00:32:00,SystemResetWarning,0837.4,5.00,000.00,029.4,025.1,000.0,037.3,029.9,34.6,0000.0,0004.99,0003.50,0003.23
2023-08-29 00:33:00,SystemResetWarning,0837.4,5.00,000.00,029.6,025.6,000.0,037.3,030.1,34.4,0000.0,0004.91,0003.46,0003.19
2023-08-29 00:34:00,SystemResetWarning,0837.6,5.01,000.00,029.7,026.0,000.0,037.4,030.1,34.1,0000.0,0004.81,0003.43,0003.17
2023-08-29 00:35:00,SystemResetWarning,0837.6,4.99,000.00,029.8,026.3,000.0,037.5,030.2,35.3,0000.0,0004.95,0003.41,0003.12
2023-08-29 00:36:00,SystemResetWarning,0837.6,5.02,000.00,030.0,026.6,000.0,037.5,030.3,34.7,0000.0,0005.22,0003.35,0003.07
2023-08-29 00:37:00,SystemResetWarning,0837.7,4.98,000.00,030.1,026.8,000.0,037.6,030.4,32.6,0000.0,0005.09,0003.30,0002.99
2023-08-29 00:38:00,SystemResetWarning,0837.7,5.00,000.00,030.2,027.0,000.0,037.7,030.5,31.0,0000.0,0004.99,0003.25,0002.91
2023-08-29 00:39:00,SystemResetWarning,0837.8,5.01,000.00,030.3,026.6,000.0,037.7,030.4,31.0,0000.0,0004.89,0003.22,0002.86
2023-08-29 00:40:00,SystemResetWarning,0837.7,4.98,000.00,030.3,025.0,000.0,037.6,030.1,31.3,0000.0,0004.76,0003.19,0002.82
2023-08-29 00:41:00,SystemResetWarning,0837.7,5.01,000.00,030.2,023.9,000.0,037.6,029.8,30.3,0000.0,0005.01,0003.17,0002.78
2023-08-29 00:42:00,SystemResetWarning,0837.7,5.01,000.00,030.1,023.9,000.0,037.6,029.7,30.2,0000.0,0005.00,0003.15,0002.76
2023-08-29 00:43:00,SystemResetWarning,0837.8,4.99,000.00,029.9,024.2,000.0,037.7,029.6,30.6,0000.0,0004.91,0003.12,0002.73
2023-08-29 00:44:00,SystemResetWarning,0837.7,5.00,000.00,029.8,024.7,000.0,037.7,029.7,31.3,0000.0,0004.91,0003.12,0002.72
2023-08-29 00:45:00,SystemResetWarning,0837.7,5.00,000.00,029.7,025.2,000.0,037.7,029.8,31.8,0000.0,0004.73,0003.04,0002.68
2023-08-29 00:46:00,SystemResetWarning,0837.7,5.00,000.00,029.7,025.6,000.0,037.8,029.9,31.0,0000.0,0004.51,0002.99,0002.68
2023-08-29 00:47:00,SystemResetWarning,0837.8,5.00,000.00,029.7,026.0,000.0,037.8,030.0,31.0,0000.0,0004.16,0003.03,0002.69
2023-08-29 00:48:00,SystemResetWarning,0837.8,4.99,000.00,029.7,026.3,000.0,037.8,030.1,31.0,0000.0,0004.29,0003.08,0002.72
2023-08-29 00:49:00,SystemResetWarning,0837.8,5.00,000.00,029.7,026.5,000.0,037.8,030.2,30.9,0000.0,0004.39,0003.10,0002.74
2023-08-29 00:50:00,SystemResetWarning,0837.8,5.00,000.00,029.7,026.8,000.0,037.8,030.2,31.8,0000.0,0004.41,0003.10,0002.76
2023-08-29 00:51:00,SystemResetWarning,0837.8,5.00,000.00,029.7,026.9,000.0,037.8,030.3,31.7,0000.0,0004.38,0003.09,0002.76
2023-08-29 00:52:00,SystemResetWarning,0837.8,5.00,000.00,029.7,027.1,000.0,037.9,030.3,31.6,0000.0,0004.32,0003.12,0002.76
2023-08-29 00:53:00,SystemResetWarning,0837.8,5.00,000.00,029.7,027.1,000.0,037.9,030.4,31.2,0000.0,0004.57,0003.15,0002.74
2023-08-29 00:54:00,SystemResetWarning,0837.8,4.98,000.00,029.7,025.7,000.0,037.7,030.1,30.7,0000.0,0004.57,0003.15,0002.72
2023-08-29 00:55:00,SystemResetWarning,0837.8,5.01,000.00,029.6,024.2,000.0,037.6,029.9,31.1,0000.0,0004.67,0003.17,0002.72
2023-08-29 00:56:00,SystemResetWarning,0837.8,5.01,000.00,029.5,023.8,000.0,037.5,029.6,31.1,0000.0,0004.71,0003.18,0002.69
2023-08-29 00:57:00,SystemResetWarning,0837.8,5.01,000.00,029.3,024.0,000.0,037.5,029.4,30.4,0000.0,0004.68,0003.17,0002.65
2023-08-29 00:58:00,SystemResetWarning,0837.9,4.99,000.00,029.2,024.5,000.0,037.5,029.5,30.6,0000.0,0004.59,0003.13,0002.60
2023-08-29 00:59:00,SystemResetWarning,0837.9,5.01,000.00,029.1,024.9,000.0,037.5,029.6,30.2,0000.0,0004.45,0003.08,0002.54
